User: anonymous   Login
Location: Raven Hill Discovery Center
(45.1336°N, 85.0553°W)
Time: 16:09:35
(UTC-04:00)
Language:

Cosmos 1470 - Orbit

View from above orbital plane
View from above orbital plane
View from above satellite
View from above satellite

Ground track
Ground track

The orbit data is extracted from the following two-line orbital elements,

1 14147U 83061A   18172.15176086  .00000289  00000-0  15395-4 0  9994
2 14147  82.4858  36.5880 0016857  73.7039 286.6043 15.10970333660520
Epoch (UTC): 21 June 2018 03:38:32
Eccentricity: 0.0016857
inclination: 82.4858°
perigee height: 521 km
apogee height: 545 km
right ascension of ascending node: 36.5880°
argument of perigee: 73.7039°
revolutions per day: 15.10970333
mean anomaly at epoch: 286.6043°
orbit number at epoch: 66052

The dashed part of the orbit path shows where the satellite is in the earth's shadow,  

DLR